Time,TemperatureF,DewpointF,PressureIn,WindDirection,WindDirectionDegrees,WindSpeedMPH,WindSpeedGustMPH,Humidity,HourlyPrecipIn,Conditions,Clouds,dailyrainin,SoftwareType,DateUTC
2013-03-28 03:22:00,25.0,18.0,30.26,NW,313,0.0,1.0,75,0.00,,,0.00,,2013-03-28 07:22:00,
2013-03-28 03:32:00,25.0,18.0,30.26,NW,313,0.0,0.0,75,0.00,,,0.00,,2013-03-28 07:32:00,
2013-03-28 03:42:00,25.0,18.0,30.26,NW,313,0.0,0.0,75,0.00,,,0.00,,2013-03-28 07:42:00,
2013-03-28 03:52:00,25.0,19.0,30.26,NW,313,0.0,0.0,76,0.00,,,0.00,,2013-03-28 07:52:00,
2013-03-28 04:02:00,25.0,19.0,30.25,NW,313,0.0,0.0,77,0.00,,,0.00,,2013-03-28 08:02:00,
2013-03-28 04:12:00,25.0,19.0,30.25,NW,313,0.0,0.0,77,0.00,,,0.00,,2013-03-28 08:12:00,
2013-03-28 04:21:00,25.0,19.0,30.26,NW,313,0.0,0.0,78,0.00,,,0.00,,2013-03-28 08:21:00,
2013-03-28 04:32:00,24.0,18.0,30.26,NW,313,0.0,0.0,79,0.00,,,0.00,,2013-03-28 08:32:00,
2013-03-28 04:42:00,24.0,18.0,30.26,NW,313,0.0,0.0,79,0.00,,,0.00,,2013-03-28 08:42:00,
2013-03-28 04:52:00,24.0,19.0,30.26,NW,313,0.0,0.0,80,0.00,,,0.00,,2013-03-28 08:52:00,
2013-03-28 05:02:00,24.0,19.0,30.26,NW,313,0.0,0.0,81,0.00,,,0.00,,2013-03-28 09:02:00,
2013-03-28 05:12:00,24.0,19.0,30.26,NW,313,0.0,0.0,81,0.00,,,0.00,,2013-03-28 09:12:00,
2013-03-28 05:22:00,24.0,19.0,30.26,NW,313,0.0,0.0,81,0.00,,,0.00,,2013-03-28 09:22:00,
2013-03-28 05:32:00,24.0,19.0,30.25,NW,313,0.0,0.0,82,0.00,,,0.00,,2013-03-28 09:32:00,
2013-03-28 05:42:00,24.0,20.0,30.25,NW,313,0.0,0.0,83,0.00,,,0.00,,2013-03-28 09:42:00,
2013-03-28 05:52:00,24.0,20.0,30.25,NW,313,0.0,0.0,83,0.00,,,0.00,,2013-03-28 09:52:00,
2013-03-28 06:02:00,24.0,20.0,30.25,NW,313,0.0,0.0,84,0.00,,,0.00,,2013-03-28 10:02:00,
2013-03-28 06:12:00,24.0,20.0,30.25,NW,313,0.0,0.0,84,0.00,,,0.00,,2013-03-28 10:12:00,
2013-03-28 06:22:00,24.0,20.0,30.25,NW,313,0.0,0.0,84,0.00,,,0.00,,2013-03-28 10:22:00,
2013-03-28 06:33:00,24.0,20.0,30.25,NW,313,0.0,0.0,84,0.00,,,0.00,,2013-03-28 10:33:00,
2013-03-28 06:42:00,24.0,20.0,30.25,NW,313,0.0,0.0,84,0.00,,,0.00,,2013-03-28 10:42:00,
2013-03-28 06:53:00,24.0,20.0,30.26,NW,313,0.0,0.0,85,0.00,,,0.00,,2013-03-28 10:53:00,
2013-03-28 07:02:00,24.0,20.0,30.26,NW,313,0.0,0.0,85,0.00,,,0.00,,2013-03-28 11:02:00,
2013-03-28 07:12:00,24.0,20.0,30.26,NW,313,0.0,0.0,85,0.00,,,0.00,,2013-03-28 11:12:00,
2013-03-28 07:22:00,24.0,20.0,30.25,NW,313,0.0,0.0,85,0.00,,,0.00,,2013-03-28 11:22:00,
2013-03-28 07:32:00,24.0,20.0,30.26,NW,313,0.0,0.0,85,0.00,,,0.00,,2013-03-28 11:32:00,
2013-03-28 07:42:00,24.0,20.0,30.26,NW,313,0.0,0.0,85,0.00,,,0.00,,2013-03-28 11:42:00,
2013-03-28 07:52:00,24.0,21.0,30.27,NW,313,0.0,0.0,87,0.00,,,0.00,,2013-03-28 11:52:00,
2013-03-28 08:02:00,24.0,21.0,30.27,NW,313,0.0,0.0,87,0.00,,,0.00,,2013-03-28 12:02:00,
2013-03-28 08:12:00,24.0,21.0,30.27,NW,313,0.0,0.0,87,0.00,,,0.00,,2013-03-28 12:12:00,
2013-03-28 08:22:00,24.0,21.0,30.27,NW,313,0.0,0.0,87,0.00,,,0.00,,2013-03-28 12:22:00,
2013-03-28 08:42:00,24.0,21.0,30.27,NW,313,0.0,0.0,88,0.00,,,0.00,,2013-03-28 12:42:00,
2013-03-28 08:52:00,26.0,23.0,30.27,NW,313,0.0,1.0,88,0.00,,,0.00,,2013-03-28 12:52:00,
2013-03-28 09:02:00,28.0,25.0,30.27,NW,313,0.0,0.0,87,0.00,,,0.00,,2013-03-28 13:02:00,
2013-03-28 09:12:00,28.0,25.0,30.27,NW,313,0.0,0.0,87,0.00,,,0.00,,2013-03-28 13:12:00,
2013-03-28 09:22:00,31.0,27.0,30.26,NW,313,0.0,0.0,84,0.00,,,0.00,,2013-03-28 13:22:00,
2013-03-28 09:32:00,33.0,27.0,30.28,NW,316,1.0,6.0,79,0.00,,,0.00,,2013-03-28 13:32:00,
2013-03-28 09:41:00,33.0,27.0,30.28,NW,316,1.0,6.0,79,0.00,,,0.00,,2013-03-28 13:41:00,
2013-03-28 09:52:00,35.0,28.0,30.28,NNW,347,0.0,2.0,76,0.00,,,0.00,,2013-03-28 13:52:00,
2013-03-28 10:02:00,37.0,29.0,30.28,WNW,287,0.0,7.0,72,0.00,,,0.00,,2013-03-28 14:02:00,
2013-03-28 10:12:00,37.0,29.0,30.28,WNW,287,0.0,7.0,72,0.00,,,0.00,,2013-03-28 14:12:00,
2013-03-28 10:22:00,38.0,28.0,30.28,West,281,1.0,8.0,68,0.00,,,0.00,,2013-03-28 14:22:00,
2013-03-28 10:32:00,39.0,28.0,30.28,WNW,298,1.0,6.0,64,0.00,,,0.00,,2013-03-28 14:32:00,
2013-03-28 10:42:00,39.0,28.0,30.28,WNW,298,1.0,6.0,64,0.00,,,0.00,,2013-03-28 14:42:00,
2013-03-28 10:52:00,40.0,27.0,30.28,NW,305,3.0,8.0,59,0.00,,,0.00,,2013-03-28 14:52:00,
2013-03-28 11:02:00,41.0,27.0,30.28,North,360,3.0,7.0,57,0.00,,,0.00,,2013-03-28 15:02:00,
2013-03-28 11:12:00,41.0,27.0,30.28,North,360,3.0,7.0,57,0.00,,,0.00,,2013-03-28 15:12:00,
2013-03-28 11:21:00,42.0,27.0,30.28,NNW,328,0.0,6.0,54,0.00,,,0.00,,2013-03-28 15:21:00,
2013-03-28 11:32:00,42.0,27.0,30.28,NNW,328,0.0,6.0,54,0.00,,,0.00,,2013-03-28 15:32:00,
2013-03-28 11:43:00,42.0,27.0,30.28,NNW,328,0.0,6.0,54,0.00,,,0.00,,2013-03-28 15:43:00,
2013-03-28 11:53:00,42.0,27.0,30.28,NNW,328,0.0,6.0,54,0.00,,,0.00,,2013-03-28 15:53:00,
2013-03-28 12:02:00,42.0,27.0,30.28,NNW,328,0.0,6.0,54,0.00,,,0.00,,2013-03-28 16:02:00,